Content
SEND FEEDBACK

Daily
Averages
Monthly
Summary
United States of America

SOUTHPORT, NORTH CAROLINA


Home > North America > United States > North Carolina
Elevation: 38 feet     Latitude: 34 00N     Longitude: 078 01W

WEATHER
 
SELECT A DAY
Number of Records: 136,238;   Date Range: 8/21/01 - 7/23/14
 
SHARE

PRINT THIS DATA

[ ← Previous Day ]
WEATHER ALMANAC - APRIL 21, 2013
[ Next Day → ]
[ °C ]   °F
Weather ElementAverageHighLow
Temperature53.3 °F60.8 °F (2:55 pm)42.8 °F (5:35 am)
Dewpoint40.6 °F44.6 °F (7:55 am)35.8 °F (11:55 pm)
Humidity63.6 %93 % (6:15 am)45 % (2:35 pm)
Barometer30.35 in30.41 in (9:15 pm)30.25 in (1:15 am)
Wind Speed12.1 mph20.7 mph (1:55 pm)
Wind Gust31.1 mph (2:15 pm)
Weather ElementAverage
Visibility10 mi
Wind DirectionNE (41.9 °)

Weather ElementTotal
Precipitation---
Heating Degree Days13.2 (Base 65)
Growing Degree Days1.8 (Base 50)
Averaged from 62 records on April 21, 2013
WEATHER CONDITIONS BREAKOUT
WIND DIRECTION BREAKOUT
WEATHER BY HOUR - APRIL 21, 2013
[ °C ]   °F
Local TimeTemperatureDewpointHumidityBarometerVisibilityWind DirectionWind SpeedGust SpeedPrecipitationEventsConditions
12:35 AM45.0 °F39.7 °F82 %30.26 in10.0 miCalmClear
12:55 AM44.8 °F40.1 °F84 %30.26 in10.0 miNNE (20°)3.5 mphClear
1:15 AM45.3 °F39.9 °F81 %30.25 in10.0 miNorth (10°)5.8 mphClear
1:35 AM44.8 °F39.6 °F82 %30.25 in10.0 miNorth (10°)3.5 mphClear
1:55 AM44.1 °F39.2 °F83 %30.26 in10.0 miNNE (20°)3.5 mphClear
2:15 AM43.3 °F39.0 °F85 %30.25 in10.0 miNNE (20°)3.5 mphClear
2:35 AM43.3 °F39.2 °F85 %30.26 in10.0 miNNE (20°)3.5 mphClear
5:15 AM43.0 °F40.1 °F90 %30.27 in10.0 miNNE (30°)3.5 mphClear
5:35 AM42.8 °F40.3 °F91 %30.28 in10.0 miNorth (10°)4.6 mphClear
5:55 AM43.5 °F41.0 °F91 %30.29 in10.0 miCalmClear
6:15 AM43.2 °F41.2 °F93 %30.30 in10.0 miNNE (20°)3.5 mphClear
6:35 AM43.3 °F41.4 °F93 %30.31 in10.0 miNorth (10°)4.6 mphClear
6:55 AM43.9 °F41.9 °F93 %30.32 in10.0 miNNE (20°)4.6 mphClear
7:15 AM44.4 °F42.3 °F92 %30.33 in10.0 miNNE (20°)5.8 mphClear
7:35 AM46.0 °F43.5 °F91 %30.34 in10.0 miNorth (10°)5.8 mphClear
7:55 AM48.0 °F44.6 °F88 %30.34 in10.0 miNorth (10°)5.8 mphClear
8:35 AM54.9 °F44.1 °F67 %30.34 in10.0 miNE (40°)10.4 mph17.3 mphClear
8:55 AM56.3 °F39.6 °F53 %30.35 in10.0 miNE (50°)8.1 mph25.3 mphClear
9:15 AM57.2 °F43.9 °F61 %30.35 in10.0 miNE (50°)10.4 mph16.1 mphClear
9:35 AM57.7 °F43.9 °F60 %30.36 in10.0 miNE (40°)11.5 mph23.0 mphScattered Clouds
9:55 AM57.6 °F41.4 °F55 %30.37 in10.0 miNE (40°)15.0 mph24.2 mphClear
10:15 AM57.7 °F42.1 °F56 %30.37 in10.0 miNE (40°)13.8 mph23.0 mphClear
10:35 AM58.5 °F43.0 °F56 %30.38 in10.0 miENE (60°)12.7 mph20.7 mphClear
10:55 AM58.3 °F43.0 °F57 %30.38 in10.0 miNE (40°)15.0 mph28.8 mphClear
11:15 AM58.6 °F43.2 °F56 %30.39 in10.0 miENE (60°)15.0 mph26.5 mphClear
11:35 AM59.7 °F44.2 °F57 %30.39 in10.0 miNE (40°)17.3 mph26.5 mphScattered Clouds
11:55 AM58.6 °F42.8 °F56 %30.39 in10.0 miENE (60°)19.6 mph28.8 mphScattered Clouds
12:15 PM60.1 °F42.6 °F53 %30.40 in10.0 miNE (50°)16.1 mph29.9 mphScattered Clouds
12:35 PM59.2 °F42.4 °F54 %30.39 in10.0 miENE (70°)17.3 mph28.8 mphClear
12:55 PM60.1 °F42.8 °F53 %30.39 in10.0 miNE (40°)18.4 mph29.9 mphClear
1:15 PM59.4 °F43.0 °F55 %30.39 in10.0 miENE (70°)17.3 mph28.8 mphClear
1:35 PM60.6 °F43.2 °F53 %30.39 in10.0 miNE (40°)19.6 mph28.8 mphClear
1:55 PM60.4 °F42.8 °F52 %30.39 in10.0 miENE (60°)20.7 mph28.8 mphScattered Clouds
2:15 PM60.3 °F43.2 °F53 %30.39 in10.0 miENE (60°)12.7 mph31.1 mphScattered Clouds
2:35 PM60.4 °F39.2 °F45 %30.39 in10.0 miNE (50°)17.3 mph28.8 mphClear
2:55 PM60.8 °F40.6 °F47 %30.39 in10.0 miENE (60°)18.4 mph26.5 mphScattered Clouds
3:15 PM59.5 °F41.0 °F50 %30.38 in10.0 miENE (70°)12.7 mph25.3 mphScattered Clouds
3:35 PM59.2 °F38.7 °F47 %30.37 in10.0 miNE (50°)20.7 mph31.1 mphScattered Clouds
3:55 PM59.7 °F40.8 °F50 %30.37 in10.0 miENE (70°)15.0 mph28.8 mphClear
4:15 PM58.5 °F38.1 °F47 %30.37 in10.0 miENE (60°)13.8 mph31.1 mphClear
4:35 PM58.3 °F38.7 °F48 %30.37 in10.0 miNE (50°)18.4 mph27.6 mphClear
4:55 PM58.3 °F40.6 °F52 %30.36 in10.0 miENE (60°)19.6 mph28.8 mphScattered Clouds
5:15 PM58.3 °F40.3 °F51 %30.36 in10.0 miNE (50°)16.1 mph31.1 mphScattered Clouds
5:35 PM56.3 °F41.0 °F57 %30.36 in10.0 miENE (60°)15.0 mph31.1 mphScattered Clouds
5:55 PM57.4 °F41.2 °F55 %30.37 in10.0 miNE (50°)18.4 mph31.1 mphScattered Clouds
6:15 PM56.3 °F41.2 °F57 %30.36 in10.0 miENE (60°)15.0 mph27.6 mphScattered Clouds
6:35 PM55.6 °F40.5 °F57 %30.36 in10.0 miNE (50°)16.1 mph28.8 mphClear
6:55 PM54.9 °F40.3 °F58 %30.36 in10.0 miENE (70°)15.0 mph28.8 mphClear
7:15 PM54.5 °F40.1 °F58 %30.36 in10.0 miNE (50°)13.8 mph27.6 mphClear
7:35 PM53.6 °F40.3 °F61 %30.36 in10.0 miNE (50°)13.8 mph21.9 mphClear
7:55 PM53.1 °F39.4 °F60 %30.37 in10.0 miNE (50°)16.1 mph25.3 mphClear
8:15 PM52.7 °F36.9 °F55 %30.38 in10.0 miNE (50°)16.1 mph25.3 mphClear
8:35 PM52.7 °F36.7 °F55 %30.38 in10.0 miNE (50°)18.4 mph25.3 mphClear
8:55 PM52.3 °F37.9 °F58 %30.39 in10.0 miNE (50°)11.5 mph20.7 mphClear
9:15 PM52.7 °F37.2 °F56 %30.41 in10.0 miNE (50°)11.5 mph18.4 mphClear
9:35 PM52.7 °F38.1 °F58 %30.41 in10.0 miNE (50°)12.7 mph20.7 mphClear
9:55 PM52.7 °F38.7 °F59 %30.41 in10.0 miNE (50°)13.8 mph23.0 mphClear
10:15 PM52.0 °F37.6 °F58 %30.40 in10.0 miNE (40°)13.8 mph19.6 mphClear
10:35 PM51.4 °F36.7 °F57 %30.40 in10.0 miNE (40°)11.5 mph23.0 mphClear
10:55 PM50.9 °F36.5 °F58 %30.39 in10.0 miNE (50°)9.2 mph25.3 mphClear
11:15 PM50.0 °F36.3 °F59 %30.40 in10.0 miNE (40°)15.0 mph20.7 mphClear
11:55 PM48.4 °F35.8 °F62 %30.37 in10.0 miNNE (30°)11.5 mph21.9 mphClear
Hourly data recorded from KSUT, located miles away from Southport, North Carolina







STORIES FROM OUR PARTNERS